Flag for U.S.A. Weather past 2 weeks in Springfield, Illinois, U.S.A.

Now
71 °F

Sunny.


Feels Like: 73 °F
Forecast: 58 / 79 °F
Wind: 5 mph from West

Location: Capital Airport

Current Time: Jul 29, 2014 at 8:48:18 PM

Latest Report: Jul 29, 2014 at 7:52 PM


Visibility: 10 mi

Pressure: 30.05 "Hg

Humidity: 73%

Dew point: 62 °F

Location of SpringfieldLocation

Historic Weather in Springfield — Graph

°F

Springfield temperature yesterday

Maximum temperature yesterday: 74 °F (at 1:52 PM)
Minimum temperature yesterday: 56 °F (at 11:52 PM)
Average temperature yesterday: 67 °F

Past Weeks' High & Low Weather Summary

 TemperatureHumidityPressure
High86 °F (Jul 21, 1:52 PM)97% (Jul 26, 9:52 PM)30.16 "Hg (Jul 26, 9:52 PM)
Low52 °F (Jul 16, 5:52 AM)39% (Jul 24, 3:52 PM)29.78 "Hg (Jul 27, 4:52 AM)
Average70 °F72%30.03 "Hg
* Reported Jul 14 7:52 PM — Jul 29 7:52 PM, Springfield, Weather by CustomWeather, © 2014

Note: Actual official high and low records may vary slightly from our data, if they occured in-between our weather recording intervals... More about our weather records

Advertising

Springfield weather history for previous 24 hours

 ConditionsComfort  
Time TempWeatherWind HumidityBarometerVisibility
7:52 PM
Jul 29
71 °FSunny.5 mph73%30.05 "Hg10 mi
6:52 PM76 °FSunny.6 mph56%30.06 "Hg10 mi
5:52 PM78 °FSunny.7 mph50%30.07 "Hg10 mi
4:52 PM79 °FSunny.6 mph45%30.08 "Hg10 mi
3:52 PM79 °FPassing clouds.9 mph45%30.10 "Hg10 mi
2:52 PM78 °FSunny.9 mph45%30.11 "Hg10 mi
1:52 PM78 °FPassing clouds.8 mph45%30.11 "Hg10 mi
12:52 PM77 °FPassing clouds.8 mph47%30.11 "Hg10 mi
11:52 AM76 °FSunny.8 mph50%30.12 "Hg10 mi
10:52 AM74 °FSunny.8 mph53%30.12 "Hg10 mi
9:52 AM72 °FSunny.6 mph61%30.12 "Hg10 mi
8:52 AM67 °FSunny.3 mph76%30.13 "Hg10 mi
7:52 AM61 °FSunny.3 mph83%30.12 "Hg10 mi
6:52 AM54 °FClear.3 mph93%30.12 "Hg10 mi
5:52 AM52 °FClear.3 mph93%30.11 "Hg10 mi
4:52 AM53 °FClear.5 mph89%30.11 "Hg10 mi
3:52 AM53 °FClear.No wind93%30.11 "Hg10 mi
2:52 AM54 °FClear.3 mph93%30.11 "Hg10 mi
1:52 AM54 °FClear.No wind93%30.11 "Hg10 mi
12:52 AM55 °FClear.5 mph93%30.11 "Hg10 mi
11:52 PM
Jul 28
56 °FClear.3 mph93%30.11 "Hg10 mi
10:52 PM58 °FClear.3 mph90%30.12 "Hg10 mi
9:52 PM59 °FClear.No wind90%30.11 "Hg10 mi
8:52 PM62 °FSunny.3 mph83%30.11 "Hg10 mi
Weather by CustomWeather, © 2014

See weather overviewHow to use our weather pages